"Pseudo-MPEC" for TF26HC9

Created 2026 Aug 25 21:35:12 UT using Find_Orb

Click here for an explanation of pseudo-MPECs

 
 Astrometry: 
     TF26HC9* C2026 08 24.22228719 20 18.472+32 23 39.08   ~8OFo 18.75GVNEOCPU74
     TF26HC9  C2026 08 24.22562819 20 01.973+32 27 32.28   ~8OFo 18.75GVNEOCPU74

Station data:
(U74) JPL SynTrack Robotic Telescope 2, Auberry  (N37.070341 W119.412800)
   US/California.  Observers N. Saini, C. Zhai, R. Trahan, M. Zhan, M. Shao.
   0.36-m f/2.2 Schmidt.

Orbital elements:  TF26HC9
   Perihelion 2026 Oct 24.937084 +/- 52.7 TT = 22:29:24.0 (JD 2461338.437084)
Epoch 2026 Aug 24.0 TT = JDT 2461276.5   Earth MOID: 0.0142      AutoNEOCP
M 313.800809004 +/- 47              (J2000 ecliptic)
n   0.745905168 +/- 0.437           Peri.   88.931748 +/- 90
a   1.204149209 +/- 0.47            Node   327.055004 +/- 60
e   0.36039940 +/- 0.284            Incl.   11.374141 +/- 18
P   1.321/482.626d         H 25.99  G  0.15   U 12.2  SR
q 0.770174547 +/- 0.11    Q 1.638123870 +/- 23.8
From 2 observations 2026 Aug. 24 (4.8 min); mean residual 0".00
Residuals in arcseconds: 
260824 U74  .01+  .00     260824 U74  .01+  .00     

Ephemerides (geocentric):
Date (UTC) HH   RA             Dec           delta  r     elong  mag " sig PA
---- --------  ------------   ------------  ------ ------ -----  --- --------
2026 08 25 22  16 26 52.323   +54 46 50.37  .01850 1.0085  82.7 20.8  35d 127
2026 08 25 23  16 22 17.030   +54 59 37.10  .01866 1.0082  82.0 20.8  35d 127
2026 08 26 00  16 17 43.758   +55 11 32.21  .01883 1.0080  81.3 20.9  35d 127
2026 08 26 01  16 13 12.697   +55 22 37.20  .01900 1.0077  80.7 20.9  35d 128
2026 08 26 02  16 08 44.028   +55 32 53.60  .01917 1.0075  80.0 21.0  35d 128
2026 08 26 03  16 04 17.920   +55 42 22.96  .01934 1.0072  79.4 21.0  35d 128
2026 08 26 04  15 59 54.531   +55 51 06.86  .01952 1.0070  78.7 21.1  35d 128
2026 08 26 05  15 55 34.011   +55 59 06.89  .01970 1.0067  78.1 21.1  35d 128
2026 08 26 06  15 51 16.494   +56 06 24.62  .01988 1.0065  77.5 21.2  35d 128
2026 08 26 07  15 47 02.107   +56 13 01.65  .02006 1.0062  76.9 21.2  35d 128
2026 08 26 08  15 42 50.961   +56 18 59.56  .02025 1.0060  76.3 21.3  35d 129
2026 08 26 09  15 38 43.159   +56 24 19.90  .02043 1.0057  75.7 21.3  35d 129
2026 08 26 10  15 34 38.791   +56 29 04.23  .02062 1.0055  75.2 21.4  36d 129
2026 08 26 11  15 30 37.937   +56 33 14.09  .02081 1.0052  74.6 21.4  36d 129
2026 08 26 12  15 26 40.664   +56 36 50.96  .02101 1.0050  74.1 21.5  36d 129
2026 08 26 13  15 22 47.031   +56 39 56.33  .02120 1.0047  73.5 21.5  36d 129
2026 08 26 14  15 18 57.086   +56 42 31.64  .02140 1.0045  73.0 21.6  36d 129
2026 08 26 15  15 15 10.866   +56 44 38.30  .02160 1.0042  72.5 21.6  36d 129
2026 08 26 16  15 11 28.401   +56 46 17.70  .02180 1.0040  72.0 21.7  36d 129
2026 08 26 17  15 07 49.710   +56 47 31.15  .02200 1.0037  71.5 21.7  36d 129
2026 08 26 18  15 04 14.804   +56 48 19.98  .02220 1.0035  71.0 21.8  36d 129
2026 08 26 19  15 00 43.689   +56 48 45.43  .02241 1.0032  70.5 21.8  36d 129
2026 08 26 20  14 57 16.360   +56 48 48.73  .02261 1.0030  70.0 21.9  36d 129
2026 08 26 21  14 53 52.808   +56 48 31.05  .02282 1.0027  69.6 21.9  36d 129
2026 08 26 22  14 50 33.017   +56 47 53.52  .02303 1.0025  69.1 22.0  36d 129
2026 08 26 23  14 47 16.963   +56 46 57.26  .02324 1.0022  68.7 22.0  36d 129
2026 08 27 00  14 44 04.621   +56 45 43.29  .02346 1.0020  68.2 22.0  36d 129
2026 08 27 01  14 40 55.958   +56 44 12.65  .02367 1.0017  67.8 22.1  36d 129
2026 08 27 02  14 37 50.938   +56 42 26.30  .02388 1.0015  67.4 22.1  36d 129
2026 08 27 03  14 34 49.520   +56 40 25.17  .02410 1.0012  67.0 22.2  36d 129
2026 08 27 04  14 31 51.661   +56 38 10.15  .02432 1.0010  66.6 22.2  36d 129
2026 08 27 05  14 28 57.315   +56 35 42.10  .02454 1.0007  66.2 22.3  36d 129
2026 08 27 06  14 26 06.432   +56 33 01.83  .02476 1.0005  65.8 22.3  36d 129
2026 08 27 07  14 23 18.960   +56 30 10.12  .02498 1.0002  65.4 22.4  37d 129
2026 08 27 08  14 20 34.846   +56 27 07.71  .02520 1.0000  65.0 22.4  37d 129
2026 08 27 09  14 17 54.035   +56 23 55.31  .02542 0.9997  64.6 22.4  37d 129
2026 08 27 10  14 15 16.470   +56 20 33.59  .02565 0.9995  64.3 22.5  37d 128
2026 08 27 11  14 12 42.093   +56 17 03.19  .02587 0.9992  63.9 22.5  37d 128
2026 08 27 12  14 10 10.845   +56 13 24.73  .02610 0.9990  63.5 22.6  37d 128
2026 08 27 13  14 07 42.668   +56 09 38.78  .02633 0.9987  63.2 22.6  37d 128
2026 08 27 14  14 05 17.501   +56 05 45.89  .02656 0.9985  62.9 22.6  37d 128
2026 08 27 15  14 02 55.284   +56 01 46.59  .02679 0.9982  62.5 22.7  37d 128
2026 08 27 16  14 00 35.957   +55 57 41.37  .02702 0.9980  62.2 22.7  37d 128
2026 08 27 17  13 58 19.461   +55 53 30.70  .02725 0.9977  61.9 22.8  37d 128
2026 08 27 18  13 56 05.735   +55 49 15.03  .02748 0.9975  61.5 22.8  37d 128
2026 08 27 19  13 53 54.721   +55 44 54.77  .02771 0.9972  61.2 22.8  37d 128
2026 08 27 20  13 51 46.357   +55 40 30.33  .02795 0.9970  60.9 22.9  37d 128
2026 08 27 21  13 49 40.588   +55 36 02.08  .02818 0.9967  60.6 22.9  38d 128